Location: Écuvilly
(49.6505°N, 2.9206°E)
Time: 01:33:19
(UTC+00:00)

Cosmos 44 Rocket - Pass Details

Date: 17 November 2025
Orbit: 637 x 741 km, 65.1° (Epoch: 13 December)

Event Time Altitude Azimuth Distance (km) Brightness Sun altitude
Rises 17:37:36 0° 206° (SSW) 2,983 7.1 -15.2°
Reaches altitude 10° 17:39:53 10° 202° (SSW) 2,090 6.2 -15.5°
Maximum altitude 17:44:33 60° 123° (ESE) 785 3.3 -16.3°
Enters shadow 17:47:12 26° 53° (NE) 1,360 4.3 -16.7°
